TimeCDT,TemperatureF,Dew PointF,Humidity,Sea Level PressureIn,VisibilityMPH,Wind Direction,Wind SpeedMPH,Gust SpeedMPH,PrecipitationIn,Events,Conditions,WindDirDegrees,DateUTC
12:15 AM,67.1,66.0,96,30.11,7.0,Calm,Calm,-,N/A,,Clear,0,2013-08-22 05:15:00
12:35 AM,67.1,66.2,97,30.11,7.0,SSW,3.5,-,N/A,,Clear,210,2013-08-22 05:35:00
12:55 AM,66.9,66.2,98,30.10,7.0,Calm,Calm,-,N/A,,Clear,0,2013-08-22 05:55:00
1:15 AM,66.2,65.3,97,30.10,7.0,Calm,Calm,-,N/A,,Clear,0,2013-08-22 06:15:00
1:35 AM,66.2,65.5,98,30.09,7.0,SW,3.5,-,N/A,,Clear,220,2013-08-22 06:35:00
2:15 AM,66.2,65.3,97,30.09,7.0,Calm,Calm,-,N/A,,Clear,0,2013-08-22 07:15:00
2:35 AM,66.2,65.3,97,30.08,7.0,Calm,Calm,-,N/A,,Clear,0,2013-08-22 07:35:00
2:55 AM,66.2,65.3,97,30.08,7.0,Calm,Calm,-,N/A,,Clear,0,2013-08-22 07:55:00
3:15 AM,65.5,64.9,98,30.08,5.0,Calm,Calm,-,N/A,,Clear,0,2013-08-22 08:15:00
3:35 AM,65.3,64.6,98,30.09,7.0,Calm,Calm,-,N/A,,Clear,0,2013-08-22 08:35:00
3:55 AM,65.7,64.8,97,30.10,7.0,Calm,Calm,-,N/A,,Clear,0,2013-08-22 08:55:00
4:15 AM,66.2,65.5,98,30.11,7.0,Calm,Calm,-,N/A,,Clear,0,2013-08-22 09:15:00
4:35 AM,66.9,66.0,97,30.11,7.0,Calm,Calm,-,N/A,,Clear,0,2013-08-22 09:35:00
4:55 AM,66.4,65.8,98,30.11,7.0,Calm,Calm,-,N/A,,Clear,0,2013-08-22 09:55:00
5:15 AM,66.2,65.7,98,30.11,5.0,Calm,Calm,-,N/A,,Clear,0,2013-08-22 10:15:00
5:35 AM,66.4,65.8,98,30.10,5.0,South,3.5,-,N/A,,Clear,190,2013-08-22 10:35:00
5:55 AM,65.7,65.1,98,30.10,5.0,Calm,Calm,-,N/A,,Clear,0,2013-08-22 10:55:00
6:15 AM,65.7,65.3,99,30.10,3.0,Calm,Calm,-,N/A,,Clear,0,2013-08-22 11:15:00
6:35 AM,65.5,65.3,99,30.11,3.0,Calm,Calm,-,N/A,,Clear,0,2013-08-22 11:35:00
6:55 AM,66.0,65.7,99,30.11,3.0,Calm,Calm,-,N/A,,Clear,0,2013-08-22 11:55:00
7:15 AM,67.3,67.1,99,30.11,3.0,Calm,Calm,-,N/A,,Clear,0,2013-08-22 12:15:00
7:35 AM,69.8,69.4,99,30.11,4.0,Calm,Calm,-,N/A,,Clear,0,2013-08-22 12:35:00
7:55 AM,71.8,70.5,96,30.12,7.0,Calm,Calm,-,N/A,,Clear,0,2013-08-22 12:55:00
8:15 AM,73.8,71.1,91,30.12,10.0,SW,3.5,-,N/A,,Clear,230,2013-08-22 13:15:00
8:35 AM,75.7,70.3,83,30.11,10.0,WSW,6.9,-,N/A,,Clear,240,2013-08-22 13:35:00
8:55 AM,77.7,70.2,77,30.11,10.0,WSW,8.1,-,N/A,,Clear,250,2013-08-22 13:55:00
9:15 AM,79.7,69.4,71,30.11,10.0,West,6.9,-,N/A,,Clear,260,2013-08-22 14:15:00
9:35 AM,81.0,69.3,67,30.12,10.0,WSW,6.9,-,N/A,,Clear,250,2013-08-22 14:35:00
9:55 AM,82.6,70.2,66,30.12,10.0,WSW,8.1,-,N/A,,Clear,250,2013-08-22 14:55:00
10:15 AM,82.9,69.6,64,30.12,10.0,WSW,8.1,-,N/A,,Clear,250,2013-08-22 15:15:00
10:35 AM,84.0,69.6,62,30.12,10.0,West,9.2,-,N/A,,Clear,260,2013-08-22 15:35:00
10:55 AM,84.7,69.8,61,30.11,10.0,WSW,4.6,-,N/A,,Clear,250,2013-08-22 15:55:00
11:15 AM,85.6,70.0,59,30.11,10.0,WNW,6.9,-,N/A,,Clear,290,2013-08-22 16:15:00
11:35 AM,85.8,69.4,58,30.11,10.0,WSW,5.8,-,N/A,,Clear,250,2013-08-22 16:35:00
11:55 AM,85.3,68.4,57,30.10,10.0,West,8.1,-,N/A,,Clear,280,2013-08-22 16:55:00
12:15 PM,86.9,68.4,54,30.10,10.0,WNW,6.9,-,N/A,,Clear,300,2013-08-22 17:15:00
12:35 PM,86.0,68.2,55,30.10,10.0,West,8.1,-,N/A,,Clear,280,2013-08-22 17:35:00
12:55 PM,87.6,68.2,52,30.10,10.0,North,5.8,-,N/A,,Clear,350,2013-08-22 17:55:00
1:15 PM,86.9,67.6,53,30.09,10.0,Calm,Calm,-,N/A,,Clear,0,2013-08-22 18:15:00
1:35 PM,86.9,68.4,54,30.08,10.0,NNW,4.6,-,N/A,,Clear,330,2013-08-22 18:35:00
1:55 PM,88.2,67.1,50,30.07,10.0,North,3.5,-,N/A,,Clear,10,2013-08-22 18:55:00
2:15 PM,88.0,67.6,51,30.07,10.0,NW,3.5,-,N/A,,Clear,320,2013-08-22 19:15:00
2:35 PM,88.3,68.0,51,30.07,10.0,NW,3.5,-,N/A,,Clear,320,2013-08-22 19:35:00
2:55 PM,87.6,66.9,50,30.06,10.0,North,5.8,-,N/A,,Clear,360,2013-08-22 19:55:00
3:15 PM,86.9,67.6,53,30.05,10.0,North,3.5,-,N/A,,Clear,360,2013-08-22 20:15:00
3:35 PM,87.8,68.2,52,30.05,10.0,NNW,3.5,-,N/A,Thunderstorm,Clear,340,2013-08-22 20:35:00
3:55 PM,88.3,68.5,52,30.05,10.0,NW,4.6,-,N/A,,Clear,310,2013-08-22 20:55:00
4:15 PM,88.0,68.5,52,30.05,10.0,NNW,6.9,-,N/A,,Clear,330,2013-08-22 21:15:00
4:35 PM,84.9,70.7,62,30.05,7.0,NW,6.9,-,N/A,,Clear,320,2013-08-22 21:35:00
4:55 PM,84.0,71.2,65,30.04,10.0,North,3.5,-,N/A,,Clear,350,2013-08-22 21:55:00
5:15 PM,84.7,71.4,64,30.03,10.0,Calm,Calm,-,N/A,,Clear,0,2013-08-22 22:15:00
5:35 PM,84.7,71.6,65,30.04,10.0,NNE,3.5,-,N/A,,Clear,30,2013-08-22 22:35:00
5:55 PM,85.1,70.5,61,30.03,10.0,ENE,6.9,-,N/A,,Clear,70,2013-08-22 22:55:00
6:15 PM,82.8,68.5,62,30.03,10.0,East,8.1,-,N/A,,Clear,80,2013-08-22 23:15:00
6:35 PM,81.9,68.7,64,30.03,10.0,ENE,5.8,-,N/A,,Clear,70,2013-08-22 23:35:00
6:55 PM,81.1,68.7,66,30.03,10.0,ENE,4.6,-,N/A,,Clear,60,2013-08-22 23:55:00
7:15 PM,79.3,68.7,70,30.03,10.0,Calm,Calm,-,N/A,,Clear,0,2013-08-23 00:15:00
7:35 PM,77.7,68.9,74,30.04,10.0,Calm,Calm,-,N/A,,Clear,0,2013-08-23 00:35:00
7:55 PM,77.4,69.1,76,30.04,10.0,Calm,Calm,-,N/A,,Clear,0,2013-08-23 00:55:00
8:15 PM,76.8,68.5,75,30.05,10.0,NE,3.5,-,N/A,,Clear,40,2013-08-23 01:15:00
8:35 PM,75.7,69.1,80,30.06,10.0,NNE,5.8,-,N/A,,Clear,30,2013-08-23 01:35:00
8:55 PM,75.7,68.9,79,30.06,10.0,NE,5.8,-,N/A,,Clear,40,2013-08-23 01:55:00
9:15 PM,75.4,68.7,80,30.07,10.0,NE,3.5,-,N/A,,Clear,40,2013-08-23 02:15:00
9:35 PM,74.3,68.4,82,30.07,10.0,NE,3.5,-,N/A,,Clear,40,2013-08-23 02:35:00
9:55 PM,74.1,68.5,83,30.07,10.0,NE,3.5,-,N/A,,Clear,40,2013-08-23 02:55:00
10:15 PM,73.9,68.9,84,30.06,10.0,Calm,Calm,-,N/A,,Clear,0,2013-08-23 03:15:00
10:35 PM,73.6,68.7,85,30.06,10.0,Calm,Calm,-,N/A,,Clear,0,2013-08-23 03:35:00
10:55 PM,72.1,70.2,93,30.06,10.0,Calm,Calm,-,N/A,,Clear,0,2013-08-23 03:55:00
11:15 PM,71.1,69.8,96,30.06,7.0,Calm,Calm,-,N/A,,Clear,0,2013-08-23 04:15:00
11:35 PM,70.3,69.8,98,30.06,7.0,Calm,Calm,-,N/A,,Clear,0,2013-08-23 04:35:00
11:55 PM,70.2,69.4,98,30.06,7.0,Calm,Calm,-,N/A,,Clear,0,2013-08-23 04:55:00